Wind_Speed
17 17 18 18 18 18 18 18 18 18 18 19 19 19 19 19 19 20 20 19 19 20 21 21 21 21 22 23 23 24 25 26 26 27 28 28 27 28 28 29 29 30 30
18 18 19 19 20 20 19 19 19 19 20 20 21 21 21 21 21 21 21 21 21 21 22 22 23 23 24 24 25 26 26 27 28 28 29 30 29 30 30 30 30 31 31
20 20 20 21 21 21 20 20 20 21 21 22 22 22 22 22 23 23 23 23 23 23 24 24 24 24 25 25 26 27 27 27 28 29 29 30 30 30 30 30 30 30 30
21 22 22 22 23 23 22 22 22 23 23 23 23 23 23 23 23 23 23 23 24 25 25 26 26 26 26 26 26 27 27 28 28 29 30 30 30 30 30 30 30 30 31
23 23 23 23 23 23 23 23 23 24 24 24 23 23 24 24 25 24 23 23 23 24 25 26 26 27 27 28 28 28 29 28 29 31 31 30 30 30 30 30 30 30 31
24 24 24 24 23 23 24 24 25 25 25 24 24 24 24 25 25 25 25 25 25 25 25 26 26 26 27 27 28 28 28 29 29 29 29 29 30 29 29 29 29 30 30
25 25 25 25 25 25 25 25 25 25 24 24 24 25 25 26 27 26 27 26 26 27 27 27 28 28 27 27 28 29 29 29 29 30 29 29 30 30 30 29 29 29 30
26 25 25 26 26 26 26 26 26 26 25 25 25 25 26 27 27 27 27 27 27 27 28 28 27 28 28 28 28 29 29 29 29 29 29 30 30 30 29 29 29 29 30
26 26 26 26 27 27 27 27 27 26 26 26 26 27 27 27 27 28 28 28 28 27 28 28 28 27 28 28 29 29 29 29 30 30 30 30 30 30 30 29 29 29 29
26 27 27 27 27 28 28 27 27 26 26 26 27 27 27 27 27 28 28 28 28 28 27 28 28 28 28 28 28 29 30 30 31 30 29 29 29 30 30 29 29 29 30
26 27 27 27 28 28 27 27 26 25 25 26 27 27 27 27 27 27 27 28 28 28 28 28 28 27 27 27 28 29 29 30 30 30 30 29 29 29 29 29 29 29 29
27 27 27 27 28 27 27 26 26 26 26 26 27 27 26 26 26 26 27 27 28 27 27 26 26 26 27 27 28 28 29 29 29 29 29 29 29 29 29 29 29 29 28
27 28 27 26 27 27 27 27 26 26 26 26 26 26 26 26 26 27 27 28 28 27 26 26 26 26 26 26 27 27 27 28 28 28 28 28 29 29 29 29 29 28 28
27 27 27 26 26 26 25 26 26 26 27 26 26 26 26 27 27 28 28 28 28 27 26 25 25 25 26 26 27 27 28 28 28 28 28 28 28 28 28 28 28 27 27
26 26 26 26 25 25 25 26 26 26 27 27 27 27 27 27 28 28 28 27 27 26 26 26 25 25 25 25 26 27 27 27 28 28 28 28 28 27 27 27 26 26 26
25 25 26 26 26 25 26 25 25 26 26 27 27 27 27 27 27 27 27 26 26 25 25 25 25 25 25 25 26 26 27 26 26 26 27 27 27 27 27 26 26 25 25
25 25 26 26 26 25 25 25 25 25 25 26 27 27 27 27 26 26 26 26 25 25 25 24 24 25 26 26 26 26 26 26 26 26 26 26 26 26 26 25 25 24 25
25 26 25 25 25 25 25 25 25 25 24 25 26 26 26 27 27 27 26 25 24 24 24 24 24 25 26 26 26 26 26 26 26 26 25 25 25 24 24 24 24 24 24
25 25 25 25 24 24 24 24 24 24 24 24 25 25 25 25 26 25 25 24 24 25 24 24 24 25 25 25 25 25 25 25 25 24 24 24 24 23 23 23 23 24 24
24 23 23 24 24 23 23 22 22 23 23 23 24 25 24 24 24 24 24 24 24 24 24 24 24 24 24 25 25 25 24 23 23 23 23 23 23 22 22 22 22 22 22
22 22 22 22 22 22 22 22 22 22 23 23 24 24 23 23 24 24 24 24 24 24 24 24 24 24 24 25 24 24 23 23 23 23 22 22 22 21 21 21 20 21 21
21 22 21 21 21 21 22 22 22 23 23 23 23 23 23 24 24 24 24 24 24 24 24 25 25 25 25 25 24 24 23 23 22 22 22 22 21 20 20 20 20 20 19
21 21 21 21 22 21 21 21 22 22 23 23 23 23 23 23 23 24 24 25 25 24 24 25 25 25 25 25 24 23 23 23 22 23 23 22 21 20 20 19 19 18 18
20 21 21 22 22 22 22 22 22 23 23 23 23 23 23 23 24 24 24 25 25 24 24 24 24 24 24 24 24 24 23 23 23 23 23 22 20 20 19 19 18 18 18
20 21 21 22 22 22 23 22 23 23 23 23 23 24 24 24 24 24 24 25 25 24 24 25 24 24 24 24 24 24 23 23 22 22 22 21 20 19 19 18 18 17 17
21 22 22 23 23 23 22 22 23 23 23 23 23 24 24 25 25 25 25 25 25 25 25 25 26 25 25 24 23 23 23 22 22 22 21 20 19 19 19 18 18 17 17
Wind_Direction
310 310 309 309 307 307 307 305 304 304 299 297 295 293 292 291 290 292 292 290 289 288 286 284 284 286 285 283 282 281 280 280 279 278 277 275 275 274 273 273 272 271 269
306 305 305 305 305 305 305 304 304 305 303 298 295 293 291 290 290 290 291 291 290 291 290 288 286 286 287 285 284 283 281 280 280 279 279 277 276 276 274 273 272 271 269
302 302 303 303 303 304 303 302 304 304 303 301 298 294 292 290 289 289 290 290 290 290 289 289 288 287 287 287 286 283 282 282 281 280 279 280 278 277 275 272 271 270 270
301 301 301 302 303 304 304 302 303 303 301 300 297 294 291 292 291 289 290 290 290 290 289 288 288 287 287 286 286 285 283 282 282 282 281 280 278 277 275 273 271 270 270
298 300 301 303 305 305 307 306 304 303 301 300 298 295 292 291 292 290 291 290 291 292 291 289 289 289 287 286 284 284 284 284 283 282 281 280 279 277 276 275 273 271 270
298 299 301 303 304 305 306 306 304 303 301 300 298 296 294 293 293 292 290 290 291 293 293 291 292 291 290 289 288 286 285 283 283 283 281 282 281 279 277 275 274 273 271
296 297 299 300 302 303 302 302 303 303 301 300 300 298 295 294 294 293 292 293 293 294 293 292 292 292 291 292 291 288 286 284 284 283 282 281 280 277 277 275 274 274 273
295 296 297 298 299 301 302 303 304 303 301 300 301 300 297 295 295 295 297 297 296 294 293 292 292 292 292 291 290 290 290 289 287 285 282 280 279 278 277 277 277 275 273
293 295 295 297 298 299 301 302 302 302 301 301 302 302 301 299 298 297 300 300 298 297 294 293 293 292 292 291 289 289 289 290 290 287 285 283 282 279 277 277 276 276 273
292 294 294 294 296 298 299 301 301 301 301 301 302 302 302 302 302 302 301 301 299 297 296 295 294 293 292 291 291 290 290 290 289 289 287 285 283 280 278 277 276 275 274
291 292 293 293 294 296 298 300 301 300 300 301 302 302 302 301 301 301 302 302 300 299 298 297 295 294 293 292 292 292 292 292 291 290 289 287 284 281 279 277 277 277 275
289 291 293 294 294 295 296 297 298 298 299 301 301 302 301 301 302 303 304 303 300 299 298 297 296 295 293 293 293 294 294 293 292 291 290 287 285 282 280 279 278 278 276
289 291 293 294 294 294 295 295 296 297 298 300 300 301 301 301 302 303 303 303 303 301 299 298 296 296 295 294 294 295 294 293 292 291 291 290 287 285 283 281 279 276 274
291 294 294 293 294 295 296 296 295 295 297 298 300 301 301 301 301 302 302 301 302 302 301 299 298 296 296 297 297 296 295 293 292 291 290 289 287 286 284 282 278 274 272
293 294 294 294 294 295 296 296 296 296 296 298 300 302 301 301 301 302 302 302 303 302 300 298 298 298 298 298 297 298 298 296 294 291 289 288 287 286 284 281 277 275 272
292 293 294 293 295 295 295 296 296 298 299 300 302 303 304 304 304 305 304 302 301 301 300 299 298 298 298 298 298 298 299 298 296 293 290 288 287 286 283 280 277 274 272
292 294 295 295 295 295 295 296 297 298 299 300 302 303 304 305 305 304 303 302 302 301 301 301 299 300 300 299 298 298 298 298 297 295 292 289 288 287 283 279 275 274 275
291 293 295 295 294 295 296 297 298 299 300 302 302 304 306 306 304 303 303 303 303 303 302 302 301 301 302 302 300 299 298 297 296 295 293 292 290 288 284 280 276 274 275
291 292 293 294 294 295 297 299 299 300 302 304 305 305 306 307 307 307 306 305 304 305 305 304 303 302 303 303 303 301 299 298 296 295 293 293 292 289 285 283 279 276 275
292 293 294 295 294 295 296 298 300 302 303 304 305 307 308 308 310 309 308 307 307 307 307 305 304 304 303 303 303 302 301 300 298 296 295 295 293 289 285 284 283 281 278
292 294 296 297 296 296 295 296 299 301 302 304 307 308 310 311 310 310 310 309 309 307 307 307 306 306 305 304 303 302 300 299 300 298 298 297 294 289 286 284 283 282 281
295 296 297 297 298 298 298 298 299 301 303 305 308 309 309 310 311 312 313 311 309 308 307 307 306 306 305 303 301 299 299 299 299 299 298 298 295 290 287 285 284 282 280
296 297 298 299 300 300 300 299 300 301 303 304 306 307 308 309 310 312 314 314 312 310 309 308 308 307 305 303 302 299 297 298 297 297 297 295 291 288 287 286 283 281 279
295 295 297 298 299 298 298 298 299 300 301 303 305 307 307 309 309 310 311 313 313 311 310 310 311 310 306 304 302 302 300 299 298 298 297 292 288 286 287 285 283 281 279
295 297 299 300 300 299 299 299 299 299 299 301 304 306 307 308 308 309 310 312 312 310 310 312 312 311 308 305 302 302 302 300 299 299 297 292 287 285 285 283 282 280 278
295 296 298 299 300 301 301 301 301 300 300 302 303 304 306 308 308 309 310 312 312 311 311 312 312 311 311 309 304 302 302 301 300 299 296 290 285 284 281 279 278 278 275
Height
5864 5862 5859 5857 5854 5852 5850 5847 5845 5843 5841 5839 5837 5835 5833 5831 5830 5828 5826 5825 5823 5822 5820 5819 5817 5816 5815 5813 5812 5811 5809 5808 5807 5806 5805 5803 5802 5801 5801 5800 5800 5799 5799
5860 5858 5855 5853 5850 5847 5845 5842 5840 5838 5835 5833 5831 5829 5827 5826 5824 5822 5820 5819 5817 5816 5814 5812 5811 5809 5808 5806 5805 5803 5802 5800 5799 5798 5797 5795 5794 5793 5792 5791 5791 5790 5790
5856 5853 5851 5848 5845 5842 5840 5837 5834 5832 5829 5827 5825 5823 5821 5819 5817 5815 5814 5812 5811 5809 5807 5806 5804 5802 5801 5799 5797 5795 5794 5792 5791 5790 5788 5787 5785 5784 5783 5782 5782 5781 5781
5851 5849 5846 5843 5840 5837 5834 5831 5829 5826 5823 5820 5818 5816 5814 5812 5810 5808 5807 5805 5803 5802 5800 5798 5796 5795 5793 5791 5789 5787 5785 5784 5782 5781 5780 5778 5776 5775 5774 5773 5773 5772 5772
5846 5844 5841 5838 5834 5831 5829 5826 5823 5819 5816 5813 5811 5809 5807 5805 5803 5801 5800 5798 5796 5794 5793 5791 5789 5786 5784 5783 5781 5779 5777 5775 5774 5772 5771 5769 5768 5766 5765 5764 5764 5763 5763
5841 5838 5835 5832 5829 5826 5823 5820 5816 5813 5810 5807 5804 5802 5800 5798 5796 5794 5793 5791 5789 5787 5785 5783 5781 5779 5776 5774 5772 5770 5768 5767 5765 5763 5762 5760 5759 5757 5756 5755 5755 5754 5754
5835 5832 5829 5826 5823 5820 5817 5813 5810 5806 5803 5800 5798 5795 5793 5791 5789 5787 5786 5783 5782 5780 5777 5775 5773 5771 5768 5766 5764 5762 5759 5757 5756 5754 5752 5751 5749 5748 5747 5747 5746 5745 5745
5828 5826 5823 5820 5817 5814 5811 5807 5804 5800 5797 5794 5792 5789 5787 5784 5782 5780 5778 5775 5774 5772 5769 5767 5765 5762 5760 5758 5755 5753 5751 5749 5747 5745 5743 5742 5740 5739 5738 5738 5737 5736 5735
5822 5819 5816 5814 5811 5808 5805 5801 5797 5794 5791 5788 5785 5782 5780 5777 5775 5773 5770 5768 5766 5763 5761 5758 5756 5754 5751 5749 5747 5745 5742 5740 5738 5736 5734 5732 5731 5730 5729 5728 5727 5727 5727
5815 5812 5810 5807 5804 5801 5798 5795 5791 5788 5785 5782 5779 5776 5773 5770 5768 5765 5762 5760 5758 5755 5753 5750 5748 5745 5743 5740 5738 5736 5734 5731 5729 5727 5725 5723 5722 5720 5719 5718 5718 5717 5717
5808 5805 5802 5800 5797 5794 5791 5788 5784 5781 5778 5776 5773 5770 5767 5764 5761 5758 5755 5752 5750 5747 5744 5742 5739 5737 5734 5732 5730 5728 5725 5722 5720 5718 5716 5714 5712 5711 5709 5709 5708 5707 5707
5800 5798 5795 5792 5789 5787 5784 5781 5778 5775 5772 5769 5766 5763 5760 5757 5754 5751 5748 5745 5742 5739 5736 5734 5731 5729 5726 5724 5722 5719 5716 5714 5711 5709 5707 5705 5703 5701 5700 5699 5698 5697 5697
5792 5790 5787 5784 5781 5779 5776 5774 5771 5768 5765 5762 5759 5756 5753 5750 5747 5744 5741 5738 5734 5731 5728 5726 5723 5721 5718 5716 5713 5711 5708 5705 5703 5701 5698 5696 5694 5692 5691 5690 5688 5688 5688
5785 5782 5779 5776 5774 5772 5769 5766 5764 5761 5758 5756 5753 5749 5746 5743 5740 5737 5734 5730 5727 5724 5721 5718 5715 5713 5710 5708 5705 5702 5700 5697 5695 5692 5690 5688 5686 5684 5682 5680 5679 5679 5679
5777 5774 5772 5769 5767 5765 5762 5759 5757 5754 5751 5749 5746 5742 5739 5736 5733 5729 5725 5722 5719 5716 5713 5710 5708 5706 5703 5700 5698 5695 5692 5689 5686 5684 5681 5679 5677 5675 5673 5671 5670 5670 5670
5770 5767 5765 5762 5760 5757 5755 5753 5750 5747 5745 5741 5738 5735 5732 5729 5726 5722 5719 5715 5712 5709 5706 5703 5700 5698 5696 5693 5690 5687 5684 5681 5678 5676 5673 5671 5669 5667 5665 5663 5662 5661 5661
5763 5761 5758 5755 5753 5750 5748 5746 5744 5741 5738 5735 5732 5729 5725 5722 5719 5716 5712 5709 5705 5702 5699 5696 5693 5691 5688 5685 5683 5680 5677 5674 5671 5668 5666 5663 5661 5659 5657 5656 5654 5654 5653
5756 5754 5751 5749 5746 5744 5742 5739 5737 5734 5731 5728 5725 5722 5719 5715 5712 5708 5705 5702 5698 5695 5692 5689 5686 5684 5681 5678 5675 5672 5670 5667 5664 5661 5659 5656 5653 5651 5649 5648 5647 5646 5645
5750 5747 5745 5743 5740 5738 5735 5733 5730 5728 5725 5722 5719 5716 5712 5709 5705 5702 5698 5695 5692 5689 5686 5683 5680 5677 5674 5671 5668 5665 5662 5659 5656 5654 5652 5649 5647 5644 5642 5641 5640 5639 5638
5743 5741 5739 5736 5734 5732 5729 5727 5724 5721 5718 5715 5712 5709 5706 5703 5699 5696 5693 5689 5686 5683 5679 5676 5673 5670 5667 5664 5661 5658 5656 5653 5650 5647 5645 5643 5640 5638 5636 5634 5633 5632 5631
5737 5735 5733 5730 5728 5726 5723 5721 5718 5715 5713 5710 5707 5703 5700 5697 5693 5690 5687 5683 5680 5677 5673 5670 5667 5664 5661 5658 5655 5652 5649 5646 5643 5641 5638 5636 5633 5631 5629 5628 5626 5625 5624
5731 5729 5726 5724 5722 5720 5717 5715 5712 5709 5706 5703 5700 5697 5694 5691 5688 5684 5681 5677 5674 5671 5667 5664 5660 5657 5654 5651 5648 5645 5642 5639 5637 5634 5632 5629 5627 5625 5623 5621 5620 5618 5617
5724 5722 5720 5718 5716 5713 5711 5709 5706 5703 5700 5697 5694 5691 5688 5685 5682 5678 5675 5671 5668 5664 5661 5657 5654 5651 5647 5644 5641 5638 5635 5633 5630 5628 5625 5623 5621 5619 5617 5615 5614 5613 5611
5718 5716 5714 5712 5710 5707 5705 5702 5700 5697 5694 5691 5688 5685 5682 5679 5676 5672 5669 5666 5662 5659 5655 5651 5648 5644 5641 5638 5634 5631 5628 5626 5623 5621 5618 5616 5614 5612 5611 5609 5608 5607 5606
5712 5710 5708 5706 5703 5701 5698 5695 5693 5690 5687 5685 5682 5679 5676 5673 5670 5666 5663 5660 5656 5653 5649 5646 5642 5638 5634 5631 5628 5625 5622 5619 5616 5614 5611 5609 5607 5606 5604 5603 5602 5601 5600
5706 5704 5702 5699 5697 5694 5691 5689 5686 5684 5681 5678 5675 5673 5670 5666 5663 5660 5656 5653 5650 5646 5643 5639 5635 5632 5628 5624 5621 5618 5615 5612 5609 5607 5604 5602 5601 5599 5598 5596 5596 5595 5594